ELECTRON KICK STAGE R/B

Satellite information

Favourite Embed

Satellite Type and Status

ROCKET BODYIN ORBIT

Key statistics

Satellite ELECTRON KICK STAGE R/B at a glance.

Uptime

31

Days in orbit

Revolutions

≈ 15.0

Per day

Orbit

LEO

Low Earth Orbit

Inclination

42.0

Latest

Satellite identification and parameters

Extended collection of information and parameters for ELECTRON KICK STAGE R/B.

Object identification

Identified? True

Debris? False

Object name: ELECTRON KICK STAGE R/B

International designator: 2025-169B

Object number (NORAD): 65117

Object ID (CCSDS): 65117

Country: UNITED STATES OF AMERICA (US)

Current information (Y/N): Y

RCS size: MEDIUM

Orbital parameters

Period: 96.159 minutes

Inclination: 42.0113 deg

SMA: 6952.691 km

Apoapsis: 578.5 km

Periapsis: 570.612 km

RAAN: 146.9309 deg

Eccentricy: 0.00056724

Argument of periapsis: 120.3432 deg

Mean anomaly: 239.7954 deg

Mean motion: 14.97522629 rev/day

Mean motion (dot): 0.00007575 rev/day2

B* drag term: 0.00065342398 1/REarth

Two-line elements (TLE)

Creation date: Sept. 4, 2025, 10:13 a.m.

Reference frame: TEME

Reference center: EARTH

Epoch: Sept. 4, 2025, 3:31 a.m. UTC

TLE line 0: 0 ELECTRON KICK STAGE R/B

TLE line 1: 1 65117U 25169B 25247.14710697 .00007575 00000-0 65342-3 0 9995

TLE line 2: 2 65117 42.0113 146.9309 0005672 120.3432 239.7954 14.97522629 4482

Live tracking on map

Real-time ground track for satellite ELECTRON KICK STAGE R/B.

In-orbit conjunctions

A list of the most updated potential collisions computed for object ELECTRON KICK STAGE R/B.

Target Orbit TCA Probability of collision Miss distance Type
SS 1 LEO 2025-09-05 21:32:16 0.001290487 941.0 (m) PAYLOAD

Associated space launch

Synthetic aperture radar Earth observation satellite for Japanese Earth imaging company iQPS.

ELECTRON KICK STAGE R/B was lifted into orbit during the mission ‘Electron | The Harvest Goddess Thrives (iQPS Launch 4)’, on board a Electron space rocket.

The launch took place on Aug. 5, 2025, 4:10 a.m. from Rocket Lab Launch Complex 1B.

For more information about the launch, click the button.

Launch to space Electron | The Harvest Goddess Thrives (iQPS Launch 4)
Electron | The Harvest Goddess Thrives (iQPS Launch 4)

Agency: N/A

Status: Launch Successful

Launch date: Aug. 5, 2025, 4:10 a.m. UTC

Rocket: Electron

Launch pad: Rocket Lab Launch Complex 1B

Location: Rocket Lab Launch Complex 1, Mahia Peninsula, New Zealand

...

Latest news about this satellite

News about space launch
Launch Roundup: Vulcan and Electron to launch between Falcon 9 missions

Four rockets are scheduled to launch from the U.S. this week. SpaceX is planning to… The post Launch Roundup: Vulcan and Electron to launch between Falcon 9 missions appeared first on NASASpaceFlight.com.

News about space launch
Japan’s iQPS lines up eight SAR launches

ST. LOUIS — Japan’s Institute for Q-shu Pioneers of Space, iQPS, plans to launch eight additional synthetic aperture radar (SAR) satellites through the end of 2026. Rocket Lab, the U.S. launch […] The post Japan’s iQPS lines up eight SAR launches appeare...


Newsletter sign-up

Weekly statistics, charts and insights to help you stay on top of the space industry.